Location: Bayshore Village Mobile Home Park
(26.6945°N, 81.8642°W)
Time: 23:12:41
(UTC+00:00)

PSLV R/B - Pass Details

Date: 17 June 2021
Orbit: 594 x 628 km, 98.0° (Epoch: 05 August)

Event Time Altitude Azimuth Distance (km) Brightness Sun altitude
Rises 09:20:42 0° 14° (NNE) 2,907 7.9 -14.8°
Reaches altitude 10° 09:22:55 10° 17° (NNE) 2,001 7.0 -14.4°
Maximum altitude 09:27:15 71° 101° (E) 663 3.8 -13.6°
Drops below altitude 10° 09:31:36 10° 186° (S) 1,995 5.8 -12.8°
Enters shadow 09:32:12 - 187° (S) 2,243 6.0 -12.7°
